Погода в Инанватане

Индонезия     2°05′41″S   132°13′31″E
темп.,
°C
ветер,
м/с
пор.,
м/с
влажн.,
%
обл.,
%
осадки,
мм/ч
давл.,
гПа
погр.,
м
2 марта, вт
вт200:00+24ю1198100 2.2 101137
03:00+24ююз1197100 5.9 100930
06:00+23с0198100 2.1 101124
09:00+24сз1297100 3.9 1012102
12:00+25зсз1495100 0.5 1011238
15:00+26з379499 4.0 1009675
18:00+24зсз2998100 6.9 1010471
21:00+23сз2899100 13.0 1012462
3 марта, ср
ср300:00+23зсз27100100 12.9 1012432
03:00+23сз2899100 26.3 1010491
06:00+22ссз2799100 1.9 1011367
09:00+23ссв0197100 1.9 1013145
12:00+29с126975 0.0 1011695
15:00+31юз125986 0.0 10081175
18:00+26юз127782 0.2 100973
21:00+24ссв008191 0.2 101123
4 марта, чт
чт400:00+23в118580 0.0 101223
03:00+22с119177 0.0 101024
06:00+21ссв119749 0.0 101123
09:00+29ссв016527 0.0 1013479
12:00+33з224643 0.0 10111576
15:00+32зюз335043 0.0 10081237
18:00+27зюз257887 0.0 1009233
21:00+24зсз128583 0.0 101132
5 марта, пт
пт500:00+23с1190100 0.0 101129
03:00+22ссз1190100 0.0 100929
06:00+21ссз129238 0.0 101029
09:00+29ссз136423 0.0 1012555
12:00+33з23410 0.0 10101570
15:00+33зюз34420 0.0 10081347
18:00+27зюз157728 0.0 1008263
21:00+25з158641 0.0 1011188
6 марта, сб
сб600:00+23ссз129851 2.2 101144
03:00+23сз169775 2.4 1010173
06:00+22сз129886 0.0 101076
09:00+27ссз267988 0.3 1012543
12:00+32зсз255397 1.2 10101516
15:00+33зсз464873 2.0 10081688
18:00+27зсз1474100 0.0 1009183
21:00+24зсз1485100 0.0 1011124